TimeHST,TemperatureF,Dew PointF,Humidity,Sea Level PressureIn,VisibilityMPH,Wind Direction,Wind SpeedMPH,Gust SpeedMPH,PrecipitationIn,Events,Conditions,WindDirDegrees,DateUTC
12:56 AM,72.0,66.9,84,30.01,10.0,ENE,6.9,-,N/A,,Clear,70,2013-08-31 10:56:00
1:56 AM,70.9,68.0,91,30.01,10.0,NE,10.4,-,N/A,,Clear,40,2013-08-31 11:56:00
2:56 AM,68.0,65.8,93,30.00,-9999.0,ENE,6.9,-,N/A,,Clear,70,2013-08-31 12:56:00
3:56 AM,70.0,66.9,90,30.00,-9999.0,ENE,8.1,-,N/A,,Clear,60,2013-08-31 13:56:00
4:56 AM,68.9,66.9,93,30.00,10.0,NE,5.8,-,N/A,,Clear,50,2013-08-31 14:56:00
5:56 AM,68.9,66.9,93,30.01,10.0,East,6.9,-,N/A,,Clear,80,2013-08-31 15:56:00
6:56 AM,68.9,65.8,90,30.03,10.0,ESE,4.6,-,N/A,,Clear,110,2013-08-31 16:56:00
7:56 AM,77.0,68.0,74,30.04,10.0,Variable,3.5,-,N/A,,Clear,0,2013-08-31 17:56:00
8:56 AM,79.9,68.0,67,30.05,10.0,Variable,3.5,-,N/A,,Mostly Cloudy,0,2013-08-31 18:56:00
9:43 AM,75.2,69.8,83,30.12,9.0,West,3.5,-,0.00,Rain,Rain,280,2013-08-31 19:43:00
9:56 AM,75.9,68.9,79,30.05,10.0,WSW,4.6,-,0.00,,Scattered Clouds,240,2013-08-31 19:56:00
10:44 AM,80.6,69.8,70,30.11,10.0,Variable,3.5,-,0.00,,Mostly Cloudy,0,2013-08-31 20:44:00
10:56 AM,80.6,66.2,61,30.11,10.0,North,11.5,-,N/A,,Mostly Cloudy,350,2013-08-31 20:56:00
11:56 AM,81.0,65.8,60,30.02,10.0,Variable,4.6,-,N/A,,Mostly Cloudy,0,2013-08-31 21:56:00
12:26 PM,80.6,66.2,61,30.08,10.0,Variable,5.8,-,N/A,,Mostly Cloudy,0,2013-08-31 22:26:00
12:46 PM,82.4,66.2,58,30.07,10.0,WSW,10.4,-,N/A,,Mostly Cloudy,250,2013-08-31 22:46:00
12:56 PM,81.9,66.9,60,30.00,10.0,West,6.9,-,N/A,,Mostly Cloudy,280,2013-08-31 22:56:00
1:56 PM,79.9,64.9,60,29.98,10.0,West,8.1,-,N/A,,Overcast,270,2013-08-31 23:56:00
2:56 PM,79.0,64.9,62,29.96,10.0,NE,20.7,24.2,N/A,,Mostly Cloudy,50,2013-09-01 00:56:00
3:10 PM,82.4,66.2,58,30.02,10.0,NE,19.6,25.3,N/A,,Partly Cloudy,40,2013-09-01 01:10:00
3:56 PM,81.9,64.9,56,29.94,10.0,NE,23.0,27.6,N/A,,Clear,50,2013-09-01 01:56:00
4:56 PM,79.9,66.9,64,29.93,10.0,NE,23.0,27.6,N/A,,Clear,40,2013-09-01 02:56:00
5:56 PM,77.0,65.8,68,29.96,10.0,NE,17.3,-,N/A,,Clear,50,2013-09-01 03:56:00
6:56 PM,73.9,66.9,79,29.97,-9999.0,NNE,9.2,-,N/A,,Mostly Cloudy,30,2013-09-01 04:56:00
7:16 PM,73.4,66.2,78,30.03,10.0,NNE,9.2,-,N/A,,Clear,30,2013-09-01 05:16:00
7:56 PM,72.0,66.9,84,29.98,10.0,NE,10.4,-,N/A,,Clear,40,2013-09-01 05:56:00
8:56 PM,72.0,65.8,81,29.99,10.0,NE,9.2,-,N/A,,Clear,40,2013-09-01 06:56:00
9:56 PM,72.0,68.0,87,30.01,-9999.0,NNE,8.1,-,N/A,,Mostly Cloudy,30,2013-09-01 07:56:00
10:08 PM,71.6,68.0,88,30.07,-9999.0,NNE,9.2,-,N/A,,Mostly Cloudy,30,2013-09-01 08:08:00
10:37 PM,71.6,66.2,83,30.07,-9999.0,NNE,10.4,-,N/A,,Mostly Cloudy,30,2013-09-01 08:37:00
10:56 PM,72.0,68.0,87,30.00,-9999.0,NNE,11.5,-,N/A,,Mostly Cloudy,20,2013-09-01 08:56:00
11:56 PM,70.9,65.8,84,29.99,-9999.0,NNE,6.9,-,N/A,,Overcast,20,2013-09-01 09:56:00